Charleston Air Force Base-International Airport
KCHS : now visible

Airfield :











YOU CAN JOIN US ON...

 
LOGIN :

Register | Disclaimer

   EN    FR    IT 

 









Legend :    VFR   Marginal VFR   IFR   Intensive IFR   Very Intensive IFR
Visi :
Ceiling :
>= 8 km
>= 3000ft
5 to 8 km
1000 to 3000 ft
1500m to 5 km
500 to 1000 ft
800 to 1500m
200 to 500 ft
< 800m
< 200 ft
Symbols :   Thunderstorms  Fog  Heavy snow  Heavy precipitations  Wind > 20 kt






- Airport Elevation : 46 ft
- IATA code : CHS


KCHS - Charleston Air Force Base-International

CURRENT METAR :
  • 231756Z 10011KT 10SM BKN030 BKN050 28/21 A3012 RMK AO2 SLP197 T02830206 10283 20217 50004

EXPIRED METARs :
  • 231656Z 14009KT 10SM BKN030 BKN050 28/21 A3012 RMK AO2 SLP198 T02780206
  • 231556Z VRB06KT 10SM SCT030 BKN050 BKN250 28/21 A3012 RMK AO2 SLP198 T02780206

TAF KCHS
Valid from the 23 at 18:00 until the 24 at 18:00 UTC


231720Z 2318/2418 10010KT P6SM SCT025 BKN050
FM240600 04005KT P6SM FEW050
KZJX FIR / North America



MET'MAP, your aeronautical weather chart ! - Copyright ORBIFLY December 2007 - Disclaimer

ORBIFLY MET'MAP TEAM :

Programming & Development : Alexandra Zaïnal
Concept & original design : Baudouin d'Aumeries
Assistance for programming : Marc-Olivier Méhu
Technical & hardware support : Manuel Goepfert

Contact : metmap@orbifly.com




SOURCES & CREDITS :

   NOAA       Earth
Advisory